(62921) = 2000 VJ12

Discovered at Socorro on 2000-11-01 by LINEAR.

Orbit

Orbit type: Main Belt

Note: WebGL enabled browser required.

epoch2024-03-31.0
epoch JD2460400.5
perihelion date2023-03-10.18413
perihelion JD2460013.68413
argument of perihelion (°)237.37649
ascending node (°)62.07469
inclination (°)12.38087
eccentricity0.1679018
perihelion distance (AU)2.3365253
Tisserand w.r.t. Jupiter3.3
ΔV w.r.t. Earth (km/sec)10.3
semimajor axis (AU)2.8079923
mean anomaly (°)81.02411
mean daily motion (°/day)0.20946430
aphelion distance (AU)3.279
period (years)4.71
P-vector [x]0.47437543
P-vector [y]-0.71867291
P-vector [z]-0.50840652
Q-vector [x]0.85969716
Q-vector [y]0.50247600
Q-vector [z]0.09186217
absolute magnitude14.53
phase slope0.15
uncertainty0
referenceMPEC 2024-C93
observations used2152
oppositions19
arc length (days)9422
first opposition used1998
last opposition used2024
residual rms (arc-secs)0.57
perturbers coarse indicatorM-v
perturbers precise indicator003Ek
first observation date used1998-04-02.0
last observation date used2024-01-18.0
computer nameMPCLINUX
JD of orbit computation2456966.839171
perihelion JD uncertainty (days)1.1155E-04
argument of perihelion uncertainty (°)3.3489E-05
ascending node uncertainty (°)2.6081E-05
inclination uncertainty (°)6.0744E-06
eccentricity uncertainty 4.1127E-08
perihelion distance uncertainty (AU)1.1554E-07
Minimum Orbit Intersection Distances (in AU)
for orbit epoch: 2460200.5, reference: E2024-C93
Mercury1.88921
Venus1.61793
Earth1.34566
Mars0.93273
Jupiter1.97316
Saturn5.87083
Uranus15.3531
Neptune26.8617

Observations

2946 total observations over interval: 1998 04 02.13403 – 2024 01 18.125758
These data are available for download (format description).

Date (UT) J2000 RA J2000 Dec Magn Location Ref
1998 04 02.13403 11 26 27.49 +21 44 50.6 18.8   704 – Lincoln Laboratory ETS, New Mexico MPS 43545
1998 04 02.15442 11 26 26.82 +21 44 48.2 19.0   704 – Lincoln Laboratory ETS, New Mexico MPS 43545
1998 04 02.17462 11 26 25.56 +21 44 52.7 19.1   704 – Lincoln Laboratory ETS, New Mexico MPS 43545
1998 04 02.19490 11 26 24.57 +21 44 50.8 19.4   704 – Lincoln Laboratory ETS, New Mexico MPS 43545
2000 10 02.42096 03 37 21.18 +12 38 15.2 19.4   704 – Lincoln Laboratory ETS, New Mexico MPS 23892
2000 10 02.43602 03 37 20.77 +12 38 15.8 19.4   704 – Lincoln Laboratory ETS, New Mexico MPS 23892
2000 10 02.46797 03 37 19.96 +12 38 15.8 20.2   704 – Lincoln Laboratory ETS, New Mexico MPS 23892
2000 10 02.48304 03 37 19.56 +12 38 16.5 19.7   704 – Lincoln Laboratory ETS, New Mexico MPS 23892
2000 10 24.39071 03 23 11.89 +12 37 26.4 18.7   704 – Lincoln Laboratory ETS, New Mexico MPS 22732
2000 10 24.40963 03 23 10.91 +12 37 26.0 19.4   704 – Lincoln Laboratory ETS, New Mexico MPS 22732
2000 10 24.42419 03 23 10.07 +12 37 26.3 19.4   704 – Lincoln Laboratory ETS, New Mexico MPS 22732
2000 10 24.43848 03 23 09.32 +12 37 26.0 19.5   704 – Lincoln Laboratory ETS, New Mexico MPS 22732
2000 10 24.45200 03 23 08.62 +12 37 26.2 19.5   704 – Lincoln Laboratory ETS, New Mexico MPS 22732
2000 11 01.27857 03 15 56.49 +12 35 01.8 19.0   704 – Lincoln Laboratory ETS, New Mexico MPS 21695
2000 11 01.29246 03 15 55.68 +12 35 01.1 19.0   704 – Lincoln Laboratory ETS, New Mexico MPS 21695
2000 11 01.30633 03 15 54.88 +12 35 00.9 19.1   704 – Lincoln Laboratory ETS, New Mexico MPS 21695
2000 11 01.32021 03 15 54.05 +12 35 00.1 18.7   704 – Lincoln Laboratory ETS, New Mexico MPS 21695
2000 11 01.33407 03 15 53.26 +12 35 01.0 19.0   704 – Lincoln Laboratory ETS, New Mexico MPS 21695
2000 11 02.29794 03 14 57.43 +12 34 44.5 18.8   704 – Lincoln Laboratory ETS, New Mexico MPS 21695
2000 11 02.31254 03 14 56.56 +12 34 43.6 18.7   704 – Lincoln Laboratory ETS, New Mexico MPS 21695
2000 11 02.32705 03 14 55.77 +12 34 43.2 19.2   704 – Lincoln Laboratory ETS, New Mexico MPS 21695
2000 11 02.34125 03 14 54.82 +12 34 42.3 19.5   704 – Lincoln Laboratory ETS, New Mexico MPS 21695
2000 11 02.35568 03 14 54.03 +12 34 43.4 19.2   704 – Lincoln Laboratory ETS, New Mexico MPS 21695
2000 11 05.31048 03 12 00.65 +12 33 55.2 19.0   704 – Lincoln Laboratory ETS, New Mexico MPS 21695
2000 11 05.32421 03 11 59.74 +12 33 53.9 19.0   704 – Lincoln Laboratory ETS, New Mexico MPS 21695
2000 11 05.33796 03 11 58.95 +12 33 53.6 19.0   704 – Lincoln Laboratory ETS, New Mexico MPS 21695
2000 11 05.35177 03 11 58.10 +12 33 53.7 19.2   704 – Lincoln Laboratory ETS, New Mexico MPS 21695
2000 11 05.36830 03 11 57.09 +12 33 53.1 19.5   704 – Lincoln Laboratory ETS, New Mexico MPS 21695
2000 11 18.33424 02 59 14.25 +12 33 05.0 18.3 R 699 – Lowell Observatory-LONEOS MPS 25247
2000 11 18.35391 02 59 13.09 +12 33 05.6   699 – Lowell Observatory-LONEOS MPS 25247
2000 11 18.37359 02 59 11.97 +12 33 05.3   699 – Lowell Observatory-LONEOS MPS 25247
2000 11 18.39333 02 59 10.83 +12 33 06.4   699 – Lowell Observatory-LONEOS MPS 25247
2001 12 19.54525 08 43 53.41 +31 44 30.5 20.6   644 – Palomar Mountain/NEAT MPS 43545
2001 12 19.55568 08 43 53.03 +31 44 33.9 20.0   644 – Palomar Mountain/NEAT MPS 43545
2001 12 19.56601 08 43 52.74 +31 44 37.7 20.2   644 – Palomar Mountain/NEAT MPS 43545
2001 12 22.31673 08 42 26.45 +32 02 09.9 19.8   704 – Lincoln Laboratory ETS, New Mexico MPS 46584
2001 12 22.33184 08 42 25.89 +32 02 16.5 19.5   704 – Lincoln Laboratory ETS, New Mexico MPS 46584
2001 12 22.34696 08 42 25.40 +32 02 22.1 19.8   704 – Lincoln Laboratory ETS, New Mexico MPS 46584
2001 12 22.36207 08 42 24.87 +32 02 28.0 19.5   704 – Lincoln Laboratory ETS, New Mexico MPS 46584
2002 01 07.30969 08 30 41.83 +33 42 48.1 19.0 R 699 – Lowell Observatory-LONEOS MPS 49260
2002 01 07.33716 08 30 40.23 +33 42 57.1   699 – Lowell Observatory-LONEOS MPS 49260
2002 01 07.36465 08 30 38.80 +33 43 06.9   699 – Lowell Observatory-LONEOS MPS 49260
2002 01 07.39217 08 30 37.11 +33 43 16.4   699 – Lowell Observatory-LONEOS MPS 49260
2002 01 13.33777 08 25 05.10 +34 16 52.9 18.7   644 – Palomar Mountain/NEAT MPS 49260
2002 01 13.40145 08 25 01.35 +34 17 13.3 19.3   644 – Palomar Mountain/NEAT MPS 49260
2002 01 13.46424 08 24 57.59 +34 17 33.0 18.8   644 – Palomar Mountain/NEAT MPS 49260
2002 01 14.48424 08 23 58.00 +34 22 56.3 19.8   644 – Palomar Mountain/NEAT MPS 49260
2002 01 14.49472 08 23 57.37 +34 22 59.3 19.8   644 – Palomar Mountain/NEAT MPS 49260
2002 01 14.50513 08 23 56.75 +34 23 02.4 19.6   644 – Palomar Mountain/NEAT MPS 49260
2002 01 23.23530 08 15 11.03 +35 03 28.9 18.9   704 – Lincoln Laboratory ETS, New Mexico MPS 46584
2002 01 23.25017 08 15 10.21 +35 03 32.1 19.4   704 – Lincoln Laboratory ETS, New Mexico MPS 46584
2002 01 23.27969 08 15 08.29 +35 03 39.1 19.0   704 – Lincoln Laboratory ETS, New Mexico MPS 46584
2002 01 23.29445 08 15 07.40 +35 03 42.3 19.2   704 – Lincoln Laboratory ETS, New Mexico MPS 46584
2002 01 25.23269 08 13 09.44 +35 11 09.5 18.4   704 – Lincoln Laboratory ETS, New Mexico MPS 46584
2002 01 25.24750 08 13 08.52 +35 11 13.9 18.7   704 – Lincoln Laboratory ETS, New Mexico MPS 46584
2002 01 25.26236 08 13 07.62 +35 11 16.5 19.1   704 – Lincoln Laboratory ETS, New Mexico MPS 46584
2002 01 25.27715 08 13 06.69 +35 11 19.9 19.2   704 – Lincoln Laboratory ETS, New Mexico MPS 46584
2002 01 25.29194 08 13 05.79 +35 11 24.3 19.4   704 – Lincoln Laboratory ETS, New Mexico MPS 46584
2002 02 10.24341 07 57 57.34 +35 49 04.9 19.1   704 – Lincoln Laboratory ETS, New Mexico MPS 54808
2002 02 10.25929 07 57 56.45 +35 49 06.5 19.6   704 – Lincoln Laboratory ETS, New Mexico MPS 54808
2002 02 10.27528 07 57 55.68 +35 49 06.7 19.7   704 – Lincoln Laboratory ETS, New Mexico MPS 54808
2002 02 10.29075 07 57 54.94 +35 49 07.9 20.5   704 – Lincoln Laboratory ETS, New Mexico MPS 54808
2002 02 10.30505 07 57 54.10 +35 49 08.8 20.1   704 – Lincoln Laboratory ETS, New Mexico MPS 54808
2003 03 03.38703 13 32 13.39 +05 50 57.5 19.7   704 – Lincoln Laboratory ETS, New Mexico MPS 73873
2003 03 03.38727 13 32 13.37 +05 51 00.3 19.4   704 – Lincoln Laboratory ETS, New Mexico MPS 73873
2003 03 03.40752 13 32 12.93 +05 51 02.6 19.2   704 – Lincoln Laboratory ETS, New Mexico MPS 73873
2003 03 03.42066 13 32 12.57 +05 51 05.6 19.1   704 – Lincoln Laboratory ETS, New Mexico MPS 73873
2003 03 03.42090 13 32 12.54 +05 51 08.3 19.3   704 – Lincoln Laboratory ETS, New Mexico MPS 73873
2003 03 03.43372 13 32 12.29 +05 51 09.0 19.2   704 – Lincoln Laboratory ETS, New Mexico MPS 73873
2003 03 03.43396 13 32 12.29 +05 51 12.4 19.5   704 – Lincoln Laboratory ETS, New Mexico MPS 73873
2003 03 09.37742 13 29 35.77 +06 16 34.7 19.1   704 – Lincoln Laboratory ETS, New Mexico MPS 73873
2003 03 09.39055 13 29 35.35 +06 16 38.6 19.3   704 – Lincoln Laboratory ETS, New Mexico MPS 73873
2003 03 09.40413 13 29 34.90 +06 16 41.8 19.5   704 – Lincoln Laboratory ETS, New Mexico MPS 73873
2003 03 09.41778 13 29 34.47 +06 16 46.2 19.7   704 – Lincoln Laboratory ETS, New Mexico MPS 73873
2003 03 09.43107 13 29 34.03 +06 16 49.7 19.3   704 – Lincoln Laboratory ETS, New Mexico MPS 73873
2003 03 24.44989 13 19 40.37 +07 22 57.1 20.2   608 – Haleakala-AMOS MPS 75841
2003 03 24.46068 13 19 39.81 +07 23 01.8 19.8   608 – Haleakala-AMOS MPS 75841
2003 03 24.47134 13 19 39.36 +07 23 04.8 19.8   608 – Haleakala-AMOS MPS 75841
2003 03 26.45249 13 18 03.72 +07 31 17.0 19.2   608 – Haleakala-AMOS MPS 75841
2003 03 26.46309 13 18 03.18 +07 31 19.7 19.3   608 – Haleakala-AMOS MPS 75841
2003 03 26.47409 13 18 02.64 +07 31 21.9 19.8   608 – Haleakala-AMOS MPS 75841
2003 03 27.37130 13 17 18.24 +07 34 59.7 18.8   704 – Lincoln Laboratory ETS, New Mexico MPS 75841
2003 03 27.38524 13 17 17.56 +07 35 02.4 19.1   704 – Lincoln Laboratory ETS, New Mexico MPS 75841
2003 03 27.39858 13 17 16.86 +07 35 05.3 19.1   704 – Lincoln Laboratory ETS, New Mexico MPS 75841
2003 03 27.41117 13 17 16.22 +07 35 08.3 19.1   704 – Lincoln Laboratory ETS, New Mexico MPS 75841
2003 03 27.42358 13 17 15.57 +07 35 11.1 19.0   704 – Lincoln Laboratory ETS, New Mexico MPS 75841
